カタログに戻る

STARLINK-30852

運用中通信VLEO
NORAD 58373·PAYLOAD·🇺🇸 United States

打ち上げ Nov 18, 2023 から Cape Canaveral Space Force Station

Loading…

次のパス (今後24時間)

TLE

最新Source: CelesTrak SupGP

元期: Sep 15, 2026, 02:48 UTC

1 58373C 23177Y   26258.11715278  .00028101  00000+0  10182-2 0  2584
2 58373  43.0038   0.5975 0001636 275.0388 317.3799 15.27553216    18

AllMySatでSTARLINK-30852をリアルタイム追跡

Download on the App Store